Location: Firdgum
(53.2488°N, 5.5615°E)
Time: 13:33:16
(UTC+00:00)

Cosmos 2227 Rocket - Pass Details

Date: 08 December 2019
Orbit: 840 x 844 km, 71.0° (Epoch: 18 January)

Event Time Altitude Azimuth Distance (km) Brightness Sun altitude
Exits shadow 04:14:17 58° 16° (NNE) 981 2.5 -29.1°
Drops below altitude 10° 04:18:51 10° 31° (NNE) 2,476 5.0 -28.4°
Sets 04:21:19 0° 32° (NNE) 3,414 5.8 -28.1°
